User: anonymous   Login
Location: Anuling
(14.1239°N, 120.8922°E)
Time: 10:54:09
(UTC+00:00)
Language:

Milstar 3 - Orbit

View from above orbital plane
View from above orbital plane
View from above satellite
View from above satellite

Ground track
Ground track

The orbit is defined by the following mean orbital elements,

1 25724U          26071.77427517 +.00000000 +00000-0 +13022-2 0 00009
2 25724  28.2233 214.1950 2130588 200.7710 149.1408  9.37496683    00
Epoch (UTC): 12 March 2026 18:34:57
Eccentricity: 0.2130588
inclination: 28.2233°
perigee height: 1098 km
apogee height: 5147 km
right ascension of ascending node: 214.1950°
argument of perigee: 200.7710°
revolutions per day: 9.37496683
mean anomaly at epoch: 149.1408°

The dashed part of the orbit path shows where the satellite is in the earth's shadow,  

DLR